Lapse_Rate
6.8 6.8 6.8 6.9 6.8 6.9 7.1 7.3 7.3 7.2 7.3 7.4 7.4 7.5 7.6 7.5 7.3 7.3 7.5 7.3 7.0 7.1 6.7 6.8 6.4 6.2 7.2 7.9 7.5 8.2 9.2 9.1 8.2 8.8 9.8 8.6 8.7 9.3 7.3 7.2 5.8 8.0 5.9
6.6 6.4 6.0 6.2 6.8 6.8 6.8 6.6 6.3 7.0 6.9 7.4 7.6 7.7 8.0 7.9 7.6 7.3 7.4 6.5 7.2 6.8 6.7 6.8 6.8 6.9 7.1 7.6 7.7 8.8 9.3 9.4 9.0 8.6 9.1 8.6 8.5 9.2 8.4 7.6 8.9 9.0 8.8
6.4 6.2 5.9 6.1 6.7 6.9 6.5 6.3 6.4 6.7 6.8 6.8 7.2 7.5 7.6 7.2 6.8 6.7 6.7 6.8 6.1 5.8 5.9 7.0 7.7 7.9 8.4 9.3 9.2 9.4 9.5 9.5 9.6 9.3 9.2 9.2 8.5 9.3 9.1 9.1 8.9 8.0 8.2
6.6 6.9 6.4 6.3 6.7 7.2 6.8 6.7 6.4 6.3 6.7 7.2 7.2 7.2 7.0 7.3 7.1 6.8 6.3 4.9 5.1 5.1 5.3 6.4 6.7 7.1 8.2 8.5 8.6 9.2 7.6 9.1 8.8 9.3 9.3 9.2 8.7 9.2 9.4 8.9 7.9 7.7 8.1
7.7 7.7 6.4 5.9 6.1 6.0 5.8 5.9 5.7 5.6 6.1 6.5 6.7 6.9 7.1 6.8 6.5 5.8 5.6 5.1 5.0 4.2 5.3 6.9 6.0 4.0 2.1 3.6 7.9 8.0 7.6 6.8 6.7 9.0 9.2 9.1 8.4 7.4 7.9 8.2 8.2 8.2 8.4
7.7 6.6 5.9 5.5 5.5 5.2 5.0 4.6 4.3 4.9 5.5 5.8 6.5 6.9 6.7 6.0 1.6 2.9 5.4 5.8 4.1 4.1 5.9 5.8 4.4 2.9 2.6 2.4 2.6 2.7 4.5 7.0 6.6 6.8 7.5 7.8 7.5 7.0 7.7 8.6 9.1 8.8 8.4
6.2 5.6 5.2 4.8 4.5 3.8 4.3 3.8 2.5 3.5 4.1 3.9 4.4 5.1 4.4 4.2 1.6 2.0 2.5 4.0 3.8 5.4 6.5 7.0 6.9 4.7 4.7 4.6 2.3 2.2 2.1 2.3 3.1 6.9 8.5 9.0 9.1 8.9 9.5 9.3 9.4 9.5 9.3
3.0 2.5 3.2 3.3 2.8 2.7 0.9 -0.7 0.3 1.1 1.5 2.3 2.2 2.3 2.3 3.5 2.2 2.1 2.3 3.4 4.9 5.4 5.7 6.1 6.3 5.7 5.5 5.4 5.7 5.1 4.5 4.4 5.5 7.3 9.4 9.7 9.8 9.7 9.7 9.7 9.8 9.4 9.4
-0.4 -0.5 -0.6 -0.4 -0.7 -0.9 -0.9 0.1 1.1 1.8 2.4 3.8 3.0 3.4 3.4 2.9 2.7 2.9 3.8 4.5 3.9 4.0 4.7 5.2 5.8 5.3 3.2 3.6 6.6 5.4 5.3 4.2 3.2 3.7 4.6 5.0 5.0 6.4 9.4 9.7 9.2 9.0 8.5
1.1 0.1 -1.2 -1.2 -0.5 0.0 0.3 1.7 3.4 4.1 3.2 3.6 3.7 3.5 3.3 3.1 3.3 3.6 4.6 5.5 4.7 5.0 4.9 4.1 3.3 4.4 4.1 4.5 5.8 6.1 6.2 4.8 4.4 4.2 3.9 3.5 4.0 4.8 4.9 7.7 9.3 9.0 8.6
0.6 0.3 -0.0 0.5 1.0 1.0 2.0 3.4 3.9 3.9 3.6 4.5 4.5 4.2 4.6 4.4 4.1 4.7 4.8 6.1 6.4 6.2 5.8 5.3 5.6 4.7 5.1 4.7 5.1 6.0 5.5 4.1 4.0 4.0 3.9 3.8 3.6 4.1 5.1 4.9 6.1 8.8 8.7
0.7 0.6 0.8 1.4 1.9 2.3 3.0 3.7 4.0 4.5 4.8 5.1 5.3 5.3 4.9 4.8 4.5 4.9 4.9 5.3 5.7 6.3 6.2 6.5 6.0 5.5 5.1 5.0 5.0 3.9 3.8 4.9 5.1 4.8 4.5 4.5 4.7 5.0 4.6 4.6 4.3 4.3 4.7
0.6 0.7 0.9 1.8 2.8 3.1 3.6 4.1 5.6 5.4 6.4 6.2 6.1 5.9 5.6 5.5 5.5 5.1 4.9 5.0 5.2 6.5 6.3 6.4 5.5 5.2 5.6 6.4 5.3 4.2 4.8 6.0 6.2 5.8 4.9 4.2 3.9 3.6 3.9 4.5 4.3 4.3 4.4
2.2 2.1 2.4 3.6 4.1 4.1 5.8 6.4 7.4 6.5 6.4 6.3 6.6 6.8 6.7 6.8 6.5 6.3 5.9 5.7 4.9 5.9 5.8 6.4 6.2 6.5 7.2 5.3 4.7 5.2 5.9 7.1 8.2 6.5 4.9 4.4 5.1 6.3 6.5 7.0 6.9 7.4 6.5
2.7 3.3 4.1 4.3 4.7 5.1 6.2 7.3 7.5 7.1 7.4 7.5 6.8 6.7 6.8 7.2 7.1 6.8 6.6 6.5 6.5 6.3 6.6 6.7 6.9 7.7 7.1 6.3 6.5 5.8 5.3 6.0 6.4 6.1 5.8 6.7 8.4 8.8 8.0 8.5 8.8 9.1 8.9
3.8 5.0 5.2 5.2 5.3 6.0 6.4 6.2 3.9 4.5 4.6 4.8 5.5 6.9 6.5 6.8 5.8 5.7 5.4 5.5 5.2 5.6 7.2 7.5 7.7 8.2 8.3 8.5 8.6 8.8 8.8 8.1 8.6 9.2 9.1 9.1 9.1 9.1 9.1 9.2 9.4 9.3 9.1
6.2 5.2 5.0 4.9 5.7 6.7 7.2 7.6 5.9 4.6 4.5 4.6 5.1 5.8 6.4 6.1 6.2 6.0 5.5 5.2 5.3 5.7 8.2 8.3 8.9 8.9 9.0 9.1 9.2 9.2 9.0 9.2 7.9 9.2 9.3 9.3 9.3 9.3 9.2 9.2 9.3 9.3 9.2
4.7 4.7 5.5 5.6 6.2 6.2 6.6 6.8 6.5 6.0 6.2 5.7 5.4 5.9 6.2 6.7 6.4 6.2 5.7 5.6 5.9 6.5 8.9 8.8 8.9 9.0 9.2 9.3 9.3 9.3 9.4 8.1 9.4 9.5 9.4 9.4 9.4 9.4 9.3 9.3 9.3 9.2 9.3
4.5 4.6 4.8 5.4 5.8 6.0 6.5 6.8 7.0 7.4 7.1 6.8 6.2 6.3 6.9 7.1 6.8 6.7 6.4 8.1 8.3 8.7 9.0 9.3 9.5 9.5 9.6 9.7 9.5 9.4 9.3 9.3 9.3 9.3 9.4 9.3 9.2 9.4 9.3 9.4 9.4 9.1 9.0
4.5 4.3 5.0 6.0 6.0 6.4 6.9 7.4 8.0 8.1 8.1 7.8 8.3 7.8 8.1 8.3 8.1 8.3 8.4 8.5 8.6 9.0 9.4 9.5 9.6 9.8 9.7 9.7 9.4 9.3 9.3 9.1 9.2 9.3 9.3 9.3 9.3 9.5 9.3 9.2 9.3 8.3 9.2
5.2 5.0 5.7 6.2 6.6 6.9 7.4 7.6 8.0 7.9 7.9 8.1 7.8 7.9 7.7 8.6 8.7 8.6 8.9 8.6 9.1 9.5 9.4 9.7 9.7 9.6 9.6 9.6 9.7 9.5 9.6 9.5 9.5 9.5 9.5 9.5 9.4 9.4 9.6 9.6 9.5 9.5 9.5
5.5 5.9 6.5 7.0 7.2 7.4 7.7 8.5 8.4 8.1 8.1 8.0 7.6 7.1 7.1 8.5 8.4 8.5 8.5 8.7 8.9 9.5 9.6 9.7 9.8 9.8 9.7 9.7 9.6 9.3 9.4 9.3 9.4 9.5 9.4 9.4 9.5 9.6 9.6 9.5 9.5 9.2 9.3
6.3 6.5 7.4 8.0 8.2 7.4 8.2 8.7 8.1 8.1 8.2 8.0 7.8 7.0 7.7 8.1 8.2 8.5 8.3 8.2 8.9 9.0 9.4 9.4 9.2 9.3 9.0 8.6 8.7 9.0 9.5 9.5 9.4 9.2 9.5 9.0 9.2 9.6 9.5 9.4 9.2 9.0 9.0
6.2 6.6 7.9 7.5 7.0 7.9 7.6 7.7 7.9 8.2 8.2 7.5 7.3 7.6 7.9 7.9 8.0 8.1 7.9 7.5 7.0 7.6 8.2 8.5 8.7 8.7 8.0 7.5 7.5 8.1 9.1 9.0 8.5 7.6 7.8 9.3 9.5 9.4 9.5 9.3 9.2 9.0 9.2
6.4 7.1 7.2 6.5 6.7 7.3 6.8 6.8 6.8 6.9 7.1 7.1 7.3 7.6 7.7 7.7 7.8 7.4 7.1 6.6 7.0 7.3 7.4 7.4 7.5 6.8 6.9 7.2 7.4 7.7 7.1 6.6 7.2 7.5 7.1 8.7 9.3 9.4 9.2 9.0 9.1 9.3 9.2
6.6 6.5 6.2 6.2 6.2 6.2 6.6 6.7 6.8 6.8 6.9 7.1 7.1 7.7 7.6 7.9 7.9 7.3 6.9 6.8 7.0 7.4 7.2 7.2 6.9 7.0 6.2 6.4 6.2 5.9 5.5 5.5 5.9 6.3 7.3 8.8 8.8 8.9 8.9 8.8 8.9 9.3 9.2
Wind_Speed
4 3 3 3 4 4 4 3 3 3 4 4 5 6 6 7 7 7 6 4 4 3 3 3 2 2 3 3 3 5 6 7 5 5 8 12 14 13 16 14 16 12 11
7 6 6 5 5 6 6 5 4 3 4 4 5 6 6 6 7 7 6 4 5 4 3 3 3 3 2 2 3 4 5 3 5 9 9 10 11 15 16 15 12 11 11
8 8 7 7 7 6 6 6 5 4 4 4 5 6 6 7 8 8 8 6 5 5 5 5 4 3 3 1 2 2 1 2 4 8 9 10 9 10 10 13 10 11 11
7 8 8 7 4 2 3 2 3 3 3 4 4 5 5 6 7 8 7 7 6 5 3 1 2 2 3 3 3 1 1 3 3 5 8 10 9 10 9 9 8 8 8
5 5 6 6 4 3 2 1 1 0 2 3 4 4 4 5 5 8 8 7 7 6 4 3 2 4 7 4 3 3 4 4 5 5 7 8 9 10 10 8 8 9 7
5 5 5 4 4 3 2 3 3 1 2 3 4 4 4 3 7 5 7 7 7 4 5 4 4 5 5 5 5 7 4 5 7 7 7 9 11 10 10 10 9 10 7
5 5 5 5 5 5 5 3 4 2 0 0 1 1 2 3 8 10 10 7 6 6 6 6 5 3 4 4 6 8 7 6 4 7 10 11 12 12 13 12 12 12 9
3 2 2 4 4 4 4 4 3 2 3 1 2 2 4 4 9 11 8 6 4 4 2 3 4 5 2 3 3 3 3 4 1 2 5 7 6 12 12 12 11 8 7
2 2 2 4 5 4 4 4 1 4 3 2 1 3 4 5 9 10 7 6 6 5 3 1 3 3 5 2 3 5 7 7 11 9 7 5 3 5 10 9 7 8 8
4 4 4 4 4 4 5 4 2 2 4 4 3 3 5 6 9 9 6 5 6 5 4 4 3 2 5 4 5 6 5 4 5 7 11 13 10 10 8 0 8 9 6
2 3 3 2 1 4 5 4 4 4 5 4 4 3 4 6 7 8 4 4 4 4 4 4 4 6 6 6 4 4 6 7 7 7 6 6 8 8 8 8 7 2 6
3 3 4 3 2 3 4 4 5 5 5 5 4 4 3 4 8 6 4 1 4 4 4 3 6 8 8 8 6 14 12 8 6 6 6 6 6 6 6 8 8 7 6
6 6 5 5 4 4 5 5 4 3 3 4 4 4 4 4 4 6 5 7 4 4 4 7 13 11 10 9 12 12 7 5 5 6 7 7 6 10 12 12 13 14 15
7 6 5 5 5 4 3 4 3 4 4 4 4 5 5 5 5 4 5 5 7 5 8 8 10 7 9 11 8 5 4 4 4 6 7 7 9 6 6 8 7 7 7
6 5 5 5 6 5 3 1 3 2 1 3 4 4 5 5 5 6 5 5 4 6 8 7 6 6 6 5 5 5 5 5 5 6 6 6 6 6 6 5 5 5 6
7 6 5 5 5 5 5 5 8 8 6 6 6 3 3 9 12 12 11 11 12 9 5 5 5 5 5 5 5 5 5 6 5 5 6 6 6 6 6 5 4 5 5
7 6 5 5 6 6 6 6 6 6 8 7 6 7 7 10 12 13 14 14 12 6 4 4 5 5 5 5 5 5 5 5 5 5 5 5 5 5 5 5 5 5 5
4 6 6 6 5 5 6 6 6 6 6 5 6 7 9 11 13 13 15 13 5 2 3 4 5 5 6 5 5 5 5 5 5 5 5 5 5 5 5 5 5 5 5
5 4 4 4 4 5 6 6 6 7 6 7 7 6 8 13 12 14 14 3 4 4 4 4 5 5 5 5 5 5 5 5 5 5 5 5 5 4 4 4 5 5 5
5 6 6 6 6 6 6 7 7 7 7 7 7 7 8 9 8 8 4 3 3 3 4 4 4 5 5 5 6 6 6 6 5 5 5 5 5 4 5 5 5 6 4
6 7 7 6 6 6 7 7 7 6 6 6 6 7 10 7 7 6 5 4 3 3 4 4 5 5 5 5 6 6 5 5 5 5 5 5 5 5 4 4 5 4 4
6 7 7 7 7 7 7 7 7 7 7 6 6 6 8 4 5 5 4 4 3 3 5 5 5 6 6 6 6 6 6 5 5 5 5 5 5 5 4 4 4 4 4
7 8 8 7 7 7 7 7 6 6 6 6 7 7 7 5 5 4 5 4 3 4 5 6 5 5 7 6 7 7 5 5 6 8 5 5 5 5 4 4 4 4 4
7 7 8 8 7 8 7 6 6 7 7 7 7 6 6 5 5 5 4 3 5 7 8 6 5 6 8 7 7 7 7 6 7 9 8 7 5 5 5 4 4 4 4
6 6 7 8 8 7 7 7 7 7 7 7 6 6 6 5 5 5 5 6 7 7 7 6 6 8 8 6 7 7 7 9 7 7 9 8 7 6 5 4 4 5 5
6 7 7 7 7 7 7 7 7 7 7 7 6 6 6 6 6 5 5 7 7 7 7 7 7 7 9 8 8 8 9 8 8 8 8 8 7 5 5 6 6 5 5
Wind_Direction
215 206 187 171 178 177 183 188 192 190 207 219 229 230 226 220 219 225 226 218 228 226 227 229 219 247 271 278 264 253 244 243 241 148 163 170 170 166 159 149 156 143 130
194 178 158 153 174 173 166 164 173 199 190 218 213 221 230 230 224 233 224 224 223 212 207 219 219 214 219 250 248 247 250 199 213 170 162 166 168 166 156 159 171 158 136
181 165 161 167 178 181 166 160 170 179 191 195 215 226 220 216 214 212 208 204 190 191 193 203 209 220 204 209 271 224 227 216 197 171 164 160 167 161 158 164 160 142 136
175 171 165 166 171 182 152 155 159 156 219 225 221 231 229 222 214 204 194 177 173 163 182 198 212 225 226 204 207 182 179 159 167 168 159 161 163 165 168 163 160 156 162
163 150 131 124 134 154 146 134 94 201 243 248 236 224 216 209 200 191 192 177 161 152 170 181 151 64 49 40 258 176 180 154 129 171 165 163 172 174 178 174 178 171 166
140 132 128 135 157 168 175 170 103 355 290 262 239 219 205 187 128 160 167 167 161 173 179 151 139 150 111 99 88 55 18 203 179 176 184 191 188 180 179 191 194 169 174
152 160 166 169 173 168 175 159 94 157 258 312 276 193 163 164 147 142 134 150 163 189 192 185 171 119 172 139 108 104 80 42 13 197 201 200 199 188 195 188 193 197 191
161 146 152 147 150 144 122 105 123 103 98 110 179 131 149 161 160 147 131 142 152 151 162 196 191 197 180 210 189 149 113 74 297 254 231 208 199 191 200 189 191 182 112
98 109 155 155 145 133 122 126 129 135 140 135 145 136 139 127 141 143 141 137 119 123 129 153 184 206 151 205 187 149 127 90 59 68 80 97 130 179 197 185 169 161 169
176 153 157 152 135 142 140 143 138 138 140 118 104 99 137 138 152 160 152 137 145 147 147 131 80 127 153 163 166 161 140 105 123 110 106 105 99 85 65 118 173 191 166
123 124 89 42 99 154 133 121 150 127 116 105 106 104 111 145 151 163 165 164 166 171 162 166 128 130 140 143 138 141 116 127 116 115 119 114 109 112 91 60 26 179 186
144 124 129 131 123 153 127 129 135 128 123 126 132 121 107 149 139 147 172 353 139 163 155 139 126 135 123 127 113 116 120 121 117 113 109 111 117 114 98 91 82 77 52
161 159 157 143 135 159 147 151 143 144 150 150 162 150 134 125 125 132 134 132 110 121 121 116 123 122 121 112 114 117 120 111 114 108 104 98 96 104 104 100 95 96 93
179 173 160 157 156 166 176 173 158 175 182 177 171 167 156 153 142 146 136 129 114 116 124 127 118 113 102 107 117 126 109 114 115 112 112 113 118 116 111 120 120 119 110
185 175 172 171 178 163 185 149 178 167 87 178 172 164 171 171 150 139 148 147 143 119 120 124 136 142 130 132 126 125 127 130 117 125 135 140 133 129 124 124 127 132 127
185 185 175 174 176 179 166 147 61 77 74 51 51 111 78 110 133 139 132 126 129 141 146 144 151 161 155 147 144 142 136 137 138 143 146 150 147 143 138 126 128 123 121
195 177 164 172 179 183 179 172 146 105 95 107 129 134 150 149 151 144 134 133 138 160 174 168 163 166 158 156 148 153 152 141 150 146 145 143 143 126 152 146 139 133 125
156 164 172 178 178 174 172 162 157 155 143 129 134 142 142 157 149 146 138 136 145 209 167 170 172 170 170 171 164 162 148 155 160 151 144 142 147 156 156 149 152 144 140
153 162 148 145 158 159 158 158 160 152 143 139 131 133 143 139 142 146 159 176 166 172 178 178 175 177 174 169 160 155 157 160 153 159 150 154 151 151 143 149 139 146 151
145 140 161 163 156 161 164 163 160 152 151 154 156 152 151 152 156 155 187 167 184 175 178 168 174 176 172 171 164 160 160 161 163 171 159 162 166 163 154 156 156 163 174
148 153 160 159 164 168 168 166 162 161 163 167 150 158 161 166 160 166 158 156 173 173 186 180 165 166 168 170 169 171 170 169 171 170 170 169 174 174 163 163 161 164 159
148 158 169 168 167 168 165 163 164 166 166 162 149 148 160 178 161 160 158 161 148 155 166 170 169 172 174 170 171 173 173 173 171 173 169 171 178 179 177 174 178 179 172
159 164 169 168 165 152 161 157 158 164 162 159 161 159 174 164 160 160 150 158 180 185 175 162 171 166 156 170 179 185 184 181 179 180 173 179 186 178 186 183 199 204 200
159 167 169 161 162 165 160 154 160 160 157 158 161 162 167 158 158 146 147 153 155 169 160 164 177 170 155 164 174 181 187 170 177 179 190 187 191 176 192 201 206 208 209
164 170 166 166 165 163 158 160 160 159 159 159 158 161 156 160 159 161 160 156 157 156 159 166 162 153 157 162 165 172 147 158 171 177 187 193 199 186 209 210 211 202 216
164 163 168 170 168 162 165 163 161 161 160 161 161 163 164 165 162 161 162 163 164 163 159 161 157 152 152 155 156 152 150 154 160 174 187 195 191 198 200 214 203 225 212